Weather Roundup
Issued by NWS Chicago, IL

Home | Current Version | Previous Version | Graphics & Text | Print | Product List | Glossary On
Versions: 1 2 3 4 5 6 7 8 9 10 11 12 13 14 15 16 17 18 19 20 21 22 23 24 25 26 27 28 29 30 31 32 33 34 35 36 37 38 39 40 41 42 43 44 45 46 47 48 49 50
000
NZUS59 KLOT 031021
HRRLOT

CHICAGO AREA WEATHER ROUNDUP
NATIONAL WEATHER SERVICE CHICAGO/ROMEOVILLE IL
500 AM CDT MON AUG 03 2015

NOTE: "FAIR" INDICATES FEW OR NO CLOUDS BELOW 12,000 FEET WITH NO
SIGNIFICANT WEATHER AND/OR OBSTRUCTIONS TO VISIBILITY.

* THESE STATIONS ARE NOT UNDER NWS QUALITY CONTROL. THEY ALSO MAY NOT
  REPORT WEATHER SUCH AS PRECIPITATION OR FOG.

ILZ005-006-012>014-019>023-031100-
NORTHEAST ILLINOIS

CITY           SKY/WX    TMP DP  RH WIND       PRES   REMARKS
OHARE          PTCLDY    67  65  93 W7        29.77R
MIDWAY         PTCLDY    69  64  84 CALM      29.77R
AURORA         CLEAR     64  61  90 W3        29.80R
LANSING*       PTCLDY    64  63  97 CALM      29.78R
JOLIET*        PTCLDY    68  65  91 CALM      29.78S
WAUKEGAN       MOCLDY    66  64  93 VRB3      29.77R
DUPAGE AIRPORT CLEAR     65  63  93 CALM      29.79R
WHEELING       NOT AVBL
KANKAKEE*      PTCLDY    68  65  88 CALM      29.79R
MORRIS*        CLEAR     66  64  91 CALM      29.77S
LEWIS AIRPORT* CLEAR     65  64  97 NW5       29.79R
NORTHERLY IS     N/A     70  64  81 W7          N/A
$$

WIZ051-052-058>065-066-070>072-031100-
SOUTHEAST WISCONSIN

CITY           SKY/WX    TMP DP  RH WIND       PRES   REMARKS
MILWAUKEE      PTCLDY    66  59  78 NW5       29.77R
KENOSHA*       MOCLDY    63  61  93 W5        29.78R
RACINE*        CLEAR     64  60  87 W6        29.79R
BURLINGTON     CLEAR     60  58  93 NW7       29.79R
WAUKESHA       CLEAR     61  55  82 W6        29.80R
WEST BEND      CLEAR     61  55  82 W3        29.78S
$$

INZ001>003-010>013-019-020-031100-
NORTHWEST INDIANA

CITY           SKY/WX    TMP DP  RH WIND       PRES   REMARKS
GARY*          PTCLDY    68  66  94 W5        29.78R
MICHIGAN CITY* NOT AVBL
RENSSELAER*    NOT AVBL
VALPARAISO     MOCLDY    64  63  96 W3        29.79R
$$

LMZ740>746-031100-
SOUTHERN LAKE MICHIGAN

STATION/POSITION TIME  SKY/WX   TEMP WIND        PRES    VSBY
                                AIR  DIR/SP/G
                 (UTC)          (F)  (DEG/KT/KT) (MB)    (MI)
HARRISON CRIB    1000            71  270/  8/  9   N/A
BURNHAM HARBOR   1000            69  240/  7/  9   N/A
CALUMET HARBOR   0900            68  230/  3/  4   N/A
BURNS HARBOR     0900            72  290/  4/  6 1008.1S
MICHIGAN CITY    1000            67  130/  4/  5   N/A
$$

ABBREVIATIONS USED IN REMARKS
   TC - TEMPERATURE IN CELSIUS
  WCI - WIND CHILL INDEX
   HX - HEAT INDEX
  VSB - VISIBILITY
$$



USA.gov is the U.S. government's official web portal to all federal, state and local government web resources and services.